UBAKUSAT (43466 NORAD) Tracking and Keplerian Element Data

This shows tracking and keplerian element data for the satellite.

Feedback or suggestion? Click here.




ElementValue
Catalog43466
NameUBAKUSAT
Epoch Orbit1114
Epoch Day203.17591202
Epoch Year2018
RAAN203.4995
Inclination51.6383
Eccentricity5.59E-05
Argument of Perigee37.2091
Mean Anonmoly322.8939
Mean Motion15.56304952
Decay Rate0.00010102
L11 43466U 98067NP 18203.17591202 .00010102 00000-0 14752-3 0 9990
L22 43466 51.6383 203.4995 0000559 37.2091 322.8939 15.56304952 11147

Live tracking and technical data element details for UBAKUSAT (NORAD 43466). UBAKUSAT can be tracked NOW for your location showing map with azimuth and elevation plus other details from your city location.

Track the satellite on the map from your city or location and see movement details for azimuth, elevation, latitude, longitude, range, height, and movement on the map or in text.







IsCatalogInMostPopularTable: catalog: 43466, numindb: 18
Update: records affected: 1



GetName: 43466 UBAKUSAT

Hit Count: updated at: Mon, 23 Jul 2018 07:58:24 GMT